ERS 1 DEB, 35259

Orbit data source: Space-Track

ERS 1 DEB, 35259 is space debris in SSO originally from a launch on Wed, 17 Jul 1991 UTC launched from the French Guiana (FRGUI). Debris objects in space refer to the collection of defunct objects orbiting the Earth. Examples of debris include non-operational satellites, rocket bodies, and fragments generated from explosions, collisions, or faulty payload assembly.

Loading next visibility...
Identifier
35259, 1991-050N
Orbit
SSO
Country
Flag of ESAESA
Related business
Manufacturer
Unknown
Mission
Spacecraft
Bus & Motor
Unknown
Mass
Unknown
Launch date (UTC)
1991-07-17 (35 years ago)
Launch vehicle
Unknown
Launch site
French Guiana (FRGUI)
Object type
Payload
Rocket body
Debris
Shape & HBR
Unknown shape, 0.1 m
Radar Cross Section
Medium (>0.1 m² and <1 m²)

Expand to show TLE details & history
Last TLE update: 2 days ago

TLE from 2 days ago
0 ERS 1 DEB
1 35259U 91050N   26171.07398370  .00002129  00000-0  41733-3 0  9998
2 35259  98.4871 217.5139 0014210 206.9884 183.1829 14.63796672175338
Epoch: 2026-06-20T01:46Z
TLE epoch observation values (Epoch: 2026-06-20T01:46:32.191Z)
Latitude
29.85033°
Longitude
-82.30005°
Altitude
694.736 km
Speed
7.506 km/s
True Right ascension
14h 10m 30s
True Declination
29° 42' 03"
Sunlit
Object was in daylight at epoch
Visualization orbit readout
Latitude
Unknown
Longitude
Unknown
Altitude
Unknown
Speed
Unknown
Apparent Right ascension
Unknown
Apparent Declination
Unknown
Sunlit
N/A
Visualization observer readout
Local Sidereal Time
23:07:55
Azimuth
Unknown
Elevation
Unknown
Doppler factor
Unknown
Orbital elements
Apogee altitude
688.058 km
Perigee altitude
668.004 km
Semi-major axis
7,056.168 km
Eccentricity
0.00142
Inclination
98.4871°
RAAN
217.5139°
Arg. of periapsis
206.9884°
True anomaly
183.17387°
Mean anomaly
183.1829°
Eccentric anomaly
183.17839°
Mean motion
3.66176 °/min
Orbital period
98.31 mins
BSTAR
0.00041733
Loading maneuver chart data...
Computing Atmospheric mass density...
Loading historical data...
Loading historical data...
Loading historical data...
Loading historical data...
Loading historical data...
Loading historical data...
Loading historical data...

Documentation

Showing up to 5 results
|